Location: Ferintosh
(52.7647°N, 112.9692°W)
Time: 21:43:15
(UTC+00:00)

A-11 Canister half - Pass Details

Date: 21 May 2024
Orbit: 1524 x 1683 km, 47.3° (Epoch: 19 June)

Event Time Altitude Azimuth Distance (km) Brightness Sun altitude
Rises 05:20:01 0° 224° (SW) 4,687 11.4 -11.8°
Reaches altitude 10° 05:23:12 10° 218° (SW) 3,721 10.8 -12.0°
Maximum altitude 05:31:54 44° 151° (SSE) 2,071 9.2 -12.7°
Drops below altitude 10° 05:40:52 10° 84° (E) 3,841 10.9 -13.3°
Sets 05:44:12 0° 78° (ENE) 4,851 11.5 -13.5°
